Weather History for St. James, MN

Change the Weather History Date:

Tuesday, April 1, 2014

  Actual Average Record
Temperature  
Mean Temperature 27 °F -  
Max Temperature 35 °F 49 °F 80 °F (1986)
Min Temperature 19 °F 29 °F 13 °F (1961)
Degree Days  
Heating Degree Days 38    
Moisture  
Dew Point 21 °F    
Average Humidity 79    
Maximum Humidity 93    
Minimum Humidity 69    
Precipitation  
Precipitation 0.00 in - - ()
Sea Level Pressure  
Sea Level Pressure 29.93 in    
Wind  
Wind Speed 26 mph (WNW)    
Max Wind Speed 37 mph    
Max Gust Speed 50 mph    
Visibility 9 miles    
Events Snow    
Averages and records for this station are not official NWS values.
T = Trace of Precipitation, MM = Missing Value Source: NWS Daily Summary

Daily Weather History Graph

Daily Weather History Graph

Search for Another Location

Airport:

Trip Planner

Search our weather history database for the weather conditions in past years. The results will help you decide how hot, cold, wet, or windy it might be!

Date:

Astronomy

Apr. 01, 2014 Rise Set
Actual Time 6:59 AM CDT 7:45 PM CDT
Civil Twilight 6:30 AM CDT 8:14 PM CDT
Nautical Twilight 5:55 AM CDT 8:49 PM CDT
Astronomical Twilight 5:19 AM CDT 9:25 PM CDT
Moon 7:58 AM CDT (4/1) 10:13 PM CDT (4/1)
Length of Visible Light 13h 44m
Length of Day
12h 45m
Waxing Crescent, 5% of the Moon is Illuminated
Apr 1
Waxing Crescent
Apr 7
First Quarter
Apr 15
Full
Apr 22
Last Quarter
Apr 29
New

Hourly Weather History & Observations

Time (CDT) Temp. Windchill Dew Point Humidity Pressure Visibility Wind Dir Wind Speed Gust Speed Precip Events Conditions
12:15 AM 24.8 °F 8.1 °F 21.2 °F 86% 29.55 in 5.0 mi West 28.8 mph 39.1 mph N/A   Overcast
12:35 AM 24.8 °F 7.6 °F 19.4 °F 80% 29.57 in 7.0 mi West 31.1 mph 42.6 mph N/A   Overcast
12:55 AM 24.8 °F 6.4 °F 19.4 °F 80% 29.58 in 5.0 mi West 36.8 mph 43.7 mph N/A   Haze
1:15 AM 24.8 °F 6.8 °F 19.4 °F 80% 29.60 in 7.0 mi West 34.5 mph 47.2 mph N/A   Overcast
1:35 AM 23.0 °F 4.6 °F 19.4 °F 86% 29.62 in 7.0 mi West 33.4 mph 41.4 mph N/A   Overcast
1:55 AM 23.0 °F 4.6 °F 17.6 °F 80% 29.63 in 7.0 mi West 33.4 mph 42.6 mph N/A   Overcast
2:15 AM 21.2 °F 1.7 °F 17.6 °F 86% 29.64 in 7.0 mi West 35.7 mph 44.9 mph N/A   Overcast
2:35 AM 21.2 °F 3.0 °F 17.6 °F 86% 29.65 in 7.0 mi West 29.9 mph 43.7 mph N/A   Overcast
2:55 AM 21.2 °F 1.9 °F 17.6 °F 86% 29.67 in 7.0 mi West 34.5 mph 48.3 mph N/A   Overcast
3:15 AM 21.2 °F 2.2 °F 17.6 °F 86% 29.68 in 5.0 mi WNW 33.4 mph 41.4 mph N/A Snow Light Snow
3:35 AM 21.2 °F 3.0 °F 17.6 °F 86% 29.70 in 7.0 mi WNW 29.9 mph 47.2 mph N/A Snow Light Snow
3:55 AM 21.2 °F 1.9 °F 15.8 °F 80% 29.70 in 5.0 mi WNW 34.5 mph 46.0 mph N/A Snow Light Snow
4:15 AM 21.2 °F 1.7 °F 15.8 °F 80% 29.71 in 5.0 mi WNW 35.7 mph 49.5 mph N/A Snow Light Snow
4:35 AM 21.2 °F 2.4 °F 15.8 °F 80% 29.73 in 5.0 mi WNW 32.2 mph 46.0 mph N/A Snow Light Snow
4:55 AM 21.2 °F 2.2 °F 15.8 °F 80% 29.75 in 5.0 mi WNW 33.4 mph 46.0 mph N/A Snow Light Snow
5:15 AM 21.2 °F 2.4 °F 15.8 °F 80% 29.77 in 5.0 mi West 32.2 mph 40.3 mph N/A Snow Light Snow
5:35 AM 21.2 °F 3.5 °F 15.8 °F 80% 29.80 in 5.0 mi West 27.6 mph 43.7 mph N/A Snow Light Snow
5:54 AM 19.4 °F -0.3 °F 15.8 °F 86% 29.81 in 5.0 mi WNW 33.4 mph 43.7 mph N/A Snow Light Snow
6:15 AM 19.4 °F 0.8 °F 15.8 °F 86% 29.82 in 5.0 mi WNW 28.8 mph 42.6 mph N/A Snow Light Snow
6:35 AM 19.4 °F 0.5 °F 15.8 °F 86% 29.83 in 7.0 mi WNW 29.9 mph 40.3 mph N/A Snow Light Snow
6:55 AM 19.4 °F 1.1 °F 15.8 °F 86% 29.84 in 7.0 mi WNW 27.6 mph 42.6 mph N/A Snow Light Snow
7:15 AM 19.4 °F 0.8 °F 15.8 °F 86% 29.86 in 7.0 mi WNW 28.8 mph 41.4 mph N/A   Overcast
7:35 AM 19.4 °F 0.8 °F 15.8 °F 86% 29.87 in 10.0 mi WNW 28.8 mph 38.0 mph N/A   Overcast
7:55 AM 19.4 °F 1.4 °F 15.8 °F 86% 29.88 in 10.0 mi WNW 26.5 mph 40.3 mph N/A   Overcast
8:15 AM 21.2 °F 4.2 °F 15.8 °F 80% 29.89 in 7.0 mi WNW 25.3 mph 33.4 mph N/A   Overcast
8:35 AM 21.2 °F 4.9 °F 15.8 °F 80% 29.91 in 10.0 mi WNW 23.0 mph 35.7 mph N/A   Mostly Cloudy
8:55 AM 21.2 °F 4.2 °F 15.8 °F 80% 29.92 in 10.0 mi WNW 25.3 mph 39.1 mph N/A   Mostly Cloudy
9:14 AM 23.0 °F 5.4 °F 15.8 °F 74% 29.92 in 10.0 mi WNW 29.9 mph 36.8 mph N/A   Mostly Cloudy
9:35 AM 23.0 °F 5.4 °F 15.8 °F 74% 29.94 in 10.0 mi West 29.9 mph 36.8 mph N/A   Mostly Cloudy
9:55 AM 24.8 °F 8.1 °F 17.6 °F 74% 29.95 in 10.0 mi WNW 28.8 mph 33.4 mph N/A   Scattered Clouds
10:14 AM 24.8 °F 8.4 °F 17.6 °F 74% 29.97 in 10.0 mi WNW 27.6 mph 34.5 mph N/A   Scattered Clouds
10:35 AM 24.8 °F 8.1 °F 17.6 °F 74% 29.98 in 10.0 mi WNW 28.8 mph 36.8 mph N/A   Scattered Clouds
10:55 AM 26.6 °F 12.0 °F 17.6 °F 69% 29.99 in 10.0 mi WNW 23.0 mph 34.5 mph N/A   Scattered Clouds
11:15 AM 26.6 °F 11.7 °F 17.6 °F 69% 29.99 in 10.0 mi WNW 24.2 mph 32.2 mph N/A   Scattered Clouds
11:35 AM 26.6 °F 12.7 °F 19.4 °F 74% 30.00 in 10.0 mi WNW 20.7 mph 29.9 mph N/A   Scattered Clouds
11:55 AM 28.4 °F 14.4 °F 19.4 °F 69% 30.00 in 10.0 mi West 23.0 mph 32.2 mph N/A   Scattered Clouds
12:15 PM 28.4 °F 14.7 °F 19.4 °F 69% 30.00 in 10.0 mi WNW 21.9 mph 31.1 mph N/A   Scattered Clouds
12:34 PM 30.2 °F 17.8 °F 21.2 °F 69% 30.02 in 10.0 mi West 19.6 mph 29.9 mph N/A   Clear
12:55 PM 30.2 °F 17.1 °F 21.2 °F 69% 30.01 in 10.0 mi West 21.9 mph 27.6 mph N/A   Scattered Clouds
1:15 PM 32.0 °F 21.2 °F 23.0 °F 69% 30.01 in 10.0 mi West 16.1 mph 27.6 mph N/A   Scattered Clouds
1:35 PM 32.0 °F 20.8 °F 23.0 °F 69% 30.02 in 10.0 mi West 17.3 mph 26.5 mph N/A   Scattered Clouds
1:55 PM 33.8 °F 22.5 °F 24.8 °F 70% 30.02 in 10.0 mi West 19.6 mph 25.3 mph N/A   Scattered Clouds
2:15 PM 33.8 °F 22.8 °F 26.6 °F 75% 30.02 in 10.0 mi WNW 18.4 mph 21.9 mph N/A   Scattered Clouds
2:34 PM 35.6 °F 26.6 °F 26.6 °F 70% 30.02 in 10.0 mi WNW 13.8 mph 24.2 mph N/A   Scattered Clouds
2:55 PM 35.6 °F 24.8 °F 26.6 °F 70% 30.02 in 10.0 mi WNW 19.6 mph 25.3 mph N/A   Scattered Clouds
3:15 PM 35.6 °F 25.5 °F 26.6 °F 70% 30.02 in 10.0 mi WNW 17.3 mph - N/A   Scattered Clouds
3:35 PM 35.6 °F 24.5 °F 26.6 °F 70% 30.03 in 10.0 mi West 20.7 mph 24.2 mph N/A   Mostly Cloudy
3:55 PM 35.6 °F 25.5 °F 26.6 °F 70% 30.03 in 10.0 mi WNW 17.3 mph 23.0 mph N/A   Mostly Cloudy
4:15 PM 35.6 °F 25.9 °F 26.6 °F 70% 30.03 in 10.0 mi West 16.1 mph - N/A   Scattered Clouds
4:35 PM 35.6 °F 25.9 °F 26.6 °F 70% 30.03 in 10.0 mi WNW 16.1 mph - N/A   Scattered Clouds
4:55 PM 33.8 °F 23.9 °F 26.6 °F 75% 30.04 in 10.0 mi WNW 15.0 mph - N/A   Scattered Clouds
5:14 PM 33.8 °F 24.8 °F 26.6 °F 75% 30.04 in 10.0 mi WNW 12.7 mph - N/A   Clear
5:35 PM 33.8 °F 24.8 °F 26.6 °F 75% 30.05 in 10.0 mi WNW 12.7 mph - N/A   Scattered Clouds
5:55 PM 33.8 °F 23.9 °F 26.6 °F 75% 30.06 in 10.0 mi West 15.0 mph - N/A   Clear
6:15 PM 33.8 °F 25.8 °F 26.6 °F 75% 30.07 in 10.0 mi WNW 10.4 mph 17.3 mph N/A   Clear
6:35 PM 32.0 °F 22.1 °F 26.6 °F 80% 30.08 in 10.0 mi WNW 13.8 mph - N/A   Clear
6:55 PM 32.0 °F 22.5 °F 26.6 °F 80% 30.09 in 10.0 mi WNW 12.7 mph - N/A   Scattered Clouds
7:15 PM 32.0 °F 23.0 °F 26.6 °F 80% 30.09 in 10.0 mi WNW 11.5 mph 17.3 mph N/A   Clear
7:35 PM 30.2 °F 20.8 °F 26.6 °F 86% 30.09 in 10.0 mi WNW 11.5 mph - N/A   Clear
7:55 PM 30.2 °F 21.3 °F 26.6 °F 86% 30.10 in 10.0 mi WNW 10.4 mph - N/A   Clear
8:15 PM 30.2 °F 22.6 °F 26.6 °F 86% 30.10 in 10.0 mi WNW 8.1 mph - N/A   Clear
8:35 PM 30.2 °F 21.3 °F 26.6 °F 86% 30.10 in 10.0 mi WNW 10.4 mph - N/A   Clear
8:55 PM 30.2 °F 21.9 °F 24.8 °F 80% 30.11 in 10.0 mi WNW 9.2 mph - N/A   Clear
9:15 PM 30.2 °F 23.4 °F 26.6 °F 86% 30.12 in 10.0 mi NW 6.9 mph - N/A   Clear
9:35 PM 30.2 °F 22.6 °F 24.8 °F 80% 30.12 in 10.0 mi NW 8.1 mph - N/A   Clear
9:55 PM 28.4 °F 19.1 °F 24.8 °F 86% 30.12 in 10.0 mi NW 10.4 mph - N/A   Clear
10:15 PM 28.4 °F 19.7 °F 24.8 °F 86% 30.11 in 10.0 mi WNW 9.2 mph - N/A   Scattered Clouds
10:35 PM 28.4 °F 19.7 °F 24.8 °F 86% 30.12 in 10.0 mi NW 9.2 mph - N/A   Scattered Clouds
10:55 PM 28.4 °F 21.2 °F 24.8 °F 86% 30.12 in 10.0 mi NW 6.9 mph - N/A   Scattered Clouds
11:15 PM 28.4 °F 22.2 °F 26.6 °F 93% 30.12 in 10.0 mi NNW 5.8 mph - N/A   Overcast
11:35 PM 28.4 °F 20.4 °F 24.8 °F 86% 30.12 in 10.0 mi NNW 8.1 mph - N/A   Overcast
11:55 PM 28.4 °F 20.4 °F 24.8 °F 86% 30.13 in 10.0 mi NNW 8.1 mph - N/A   Overcast